[[{"header":{"parameterUnit":"m.s-1","parameterCategory":1,"la1":30.2991,"la2":30.254,"lo1":-89.0895,"lo2":-89.0444,"dy":0.0017,"dx":0.0017,"nx":28,"ny":28,"refTime":"2023-10-24T21:00:00:Z","depth":0,"parameterNumber":2,"parameterNumberName":"U-component_of_WINDS"},"data":[0,0,0,0,0,0,0,0,0,0,0,0,0,0,0,0,0,0,0,0,0,0,0,0,0,0,0,0,0,0,0,0,0,0,0,0,0,0,0,0,0,0,0,0,0,0,0,0,0,0,0,0,0,0,0,0,0,0,-5.5197,-5.5198,0,-5.5297,-5.5298,-5.5299,-5.528,-5.5278,-5.5276,-5.5274,-5.5373,-5.5377,-5.5381,0,0,0,0,0,0,0,0,0,0,0,0,0,-5.4988,-5.4992,-5.5197,-5.5198,-5.5199,-5.5297,-5.5298,-5.5299,-5.528,-5.5278,-5.5276,-5.5274,-5.5371,-5.5376,-5.5381,0,0,0,0,0,0,0,0,0,0,0,0,0,-5.5082,-5.4993,-5.5197,-5.5202,-5.5203,-5.5296,-5.5298,-5.53,-5.528,-5.5278,-5.5275,-5.5273,-5.5369,-5.5376,-5.5382,-5.5475,0,0,-5.5402,-5.5404,0,0,0,0,0,0,0,0,-5.5077,-5.509,-5.52,-5.5201,-5.5203,-5.5273,-5.526,-5.5358,-5.5281,-5.5251,-5.5274,-5.5271,-5.5341,-5.535,-5.5374,-5.548,-5.5484,-5.5402,-5.5406,-5.5409,-5.5411,0,0,0,0,0,0,0,-5.507,-5.5086,-5.5236,-5.5201,-5.5203,-5.5198,-5.5209,-5.5279,-5.531,-5.5253,-5.5252,-5.5265,-5.5342,-5.5368,-5.5377,-5.5486,-5.5402,-5.5408,-5.5412,-5.5414,-5.5676,-5.5679,0,0,0,0,0,0,-5.5063,-5.508,-5.5233,-5.5239,-5.5132,-5.5204,-5.5216,-5.5253,-5.5309,-5.5315,-5.5267,-5.5263,-5.5359,-5.5369,-5.538,-5.5494,-5.5409,-5.5415,-5.5418,-5.5672,-5.5676,-5.568,0,0,0,0,0,0,-5.5058,-5.5076,-5.5229,-5.516,-5.5179,-5.5211,-5.5253,-5.5257,-5.5283,-5.5319,-5.5324,-5.5288,-5.5357,-5.5371,-5.5453,-5.5497,-5.5418,-5.5424,-5.5669,-5.5674,-5.5678,-5.5722,0,0,0,0,0,0,-5.5052,-5.5075,-5.5111,-5.5161,-5.5182,-5.53,-5.5256,-5.5261,-5.5295,-5.5291,-5.5341,-5.5346,-5.5356,-5.5443,-5.5459,-5.5504,-5.5429,-5.5665,-5.5671,-5.5676,-5.5716,-5.5727,-5.5737,0,0,0,0,0,-5.5045,-5.5118,-5.5113,-5.5131,-5.5228,-5.5303,-5.5315,-5.5326,-5.5298,-5.5334,-5.5359,-5.5345,-5.549,-5.5452,-5.5469,-5.5517,-5.5662,-5.5669,-5.5676,-5.5712,-5.5725,-5.5736,0,0,0,0,0,0,-5.5069,-5.5124,-5.5119,-5.521,-5.5253,-5.53,-5.5345,-5.5339,-5.5389,-5.5383,-5.5394,-5.5405,-5.5489,-5.5511,-5.5468,-5.5612,-5.5572,-5.5583,-5.5593,-5.5606,-5.5616,-5.5608,-5.5434,0,0,0,0,0,-5.5086,-5.5143,-5.5188,-5.5264,-5.5285,-5.5312,-5.5345,-5.535,-5.5394,-5.5411,-5.544,-5.5482,-5.5538,-5.5574,-5.5627,-5.5721,-5.5732,-5.5763,-5.5773,-5.5781,-5.5789,-5.5843,-5.5857,-5.5702,-5.5702,-5.5702,0,0,-5.5119,-5.5156,-5.5191,-5.527,-5.5303,-5.5362,-5.5327,-5.539,-5.5433,-5.542,-5.5499,-5.5523,-5.5571,-5.566,-5.57,-5.5681,-5.5836,-5.579,-5.5796,-5.58,-5.5851,-5.5866,-5.5879,-5.5707,-5.5706,-5.5706,0,0,-5.521,-5.5244,-5.5312,-5.5347,-5.5399,-5.5417,-5.5434,-5.5483,-5.5499,-5.558,-5.5572,-5.5624,-5.5719,-5.5754,-5.5784,-5.5894,-5.5883,-5.5911,-5.5962,-5.6014,-5.6026,-5.6037,-5.6076,-5.609,-5.592,-5.592,-5.592,0,-5.5244,-5.5333,-5.5347,-5.5412,-5.5447,-5.5441,-5.551,-5.5544,-5.5609,-5.5634,-5.5612,-5.5734,-5.5765,-5.5863,-5.589,-5.5915,-5.5934,-5.5904,-5.6024,-5.6035,-5.6045,-5.6082,-5.6097,-5.5923,-5.5923,-5.5922,-5.5922,0,-5.5373,-5.5435,-5.5484,-5.555,-5.5591,-5.5658,-5.5682,-5.5722,-5.5725,-5.5746,-5.5829,-5.5868,-5.5929,-5.5954,-5.5956,-5.6053,-5.604,-5.6021,-5.5981,-5.6063,-5.6098,-5.6112,-5.5927,-5.5926,-5.5925,-5.5924,0,0,-5.5477,-5.5555,-5.5572,-5.5603,-5.5663,-5.571,-5.5778,-5.5841,-5.5875,-5.5922,-5.5978,-5.6062,-5.6046,-5.6081,-5.6088,-5.6134,-5.6219,-5.611,-5.6111,-5.6128,-5.6329,-5.6341,-5.6357,-5.6214,-5.6217,-5.6219,-5.6324,0,-5.5573,-5.5692,-5.5709,-5.5815,-5.5873,-5.5871,-5.593,-5.5973,-5.5995,-5.6048,-5.6072,-5.6131,-5.6106,-5.6127,-5.6172,-5.6199,-5.6259,-5.6192,-5.6266,-5.6268,-5.6252,-5.6376,-5.6388,-5.6485,-5.6338,-5.6341,-5.6342,0,-5.5699,-5.5752,-5.5864,-5.5919,-5.5944,-5.5997,-5.6057,-5.6107,-5.6157,-5.617,-5.6211,-5.6214,-5.6284,-5.6244,-5.6341,-5.6295,-5.6327,-5.6346,-5.635,-5.6355,-5.6308,-5.6383,-5.6517,-5.6531,-5.6364,-5.6363,-5.6361,0,-5.5763,-5.5863,-5.5944,-5.5971,-5.6036,-5.6074,-5.6102,-5.615,-5.6187,-5.624,-5.6265,-5.6325,-5.6357,-5.6404,-5.6423,-5.6392,-5.6519,-5.648,-5.6532,-5.6531,-5.6556,-5.6554,-5.6695,-5.658,-5.658,-5.6579,-5.6579,0,-5.5867,-5.5935,-5.5974,-5.6023,-5.6101,-5.612,-5.6196,-5.6224,-5.6267,-5.6322,-5.6324,-5.6375,-5.6398,-5.6453,-5.6469,-5.6548,-5.6563,-5.6575,-5.6578,-5.6574,-5.6572,-5.6593,-5.6586,-5.6583,-5.6582,-5.6582,-5.6581,0,-5.5949,-5.5978,-5.6066,-5.6123,-5.6139,-5.6193,-5.6242,-5.629,-5.6314,-5.6383,-5.6401,-5.6438,-5.6503,-5.6528,-5.6607,-5.6618,-5.6709,-5.6707,-5.6692,-5.6693,-5.6742,-5.6737,-5.6901,-5.6923,-5.6794,-5.6795,-5.6797,0,-5.6012,-5.6066,-5.6129,-5.6167,-5.6198,-5.6259,-5.6298,-5.6321,-5.6362,-5.6425,-5.6466,-5.6532,-5.6585,-5.669,-5.6724,-5.6785,-5.6784,-5.6838,-5.6793,-5.6788,-5.6784,-5.678,-5.6786,-5.6845,-5.6846,-5.6847,-5.6848,0,-5.6121,-5.6134,-5.6191,-5.6255,-5.6303,-5.6354,-5.6403,-5.6434,-5.6464,-5.651,-5.6578,-5.662,-5.6704,-5.6769,-5.6833,-5.6863,-5.6861,-5.6863,-5.6878,-5.6872,-5.6862,-5.6868,-5.6713,-5.6858,-5.6857,-5.6856,-5.6855,-5.6855,-5.6196,-5.6244,-5.6297,-5.6361,-5.6402,-5.6449,-5.6498,-5.653,-5.6587,-5.6658,-5.6668,-5.6741,-5.6793,-5.6879,-5.6912,-5.697,-5.6955,-5.6977,-5.6982,-5.6987,-5.699,-5.6855,-5.6982,-5.6981,-5.6981,-5.6981,-5.6981,0,-5.6304,-5.6339,-5.6399,-5.6469,-5.6521,-5.6518,-5.6573,-5.6616,-5.6681,-5.673,-5.6784,-5.6864,-5.6929,-5.697,-5.7035,-5.7074,-5.7075,-5.709,-5.7086,-5.7093,-5.6999,-5.698,-5.7088,-5.7088,-5.7088,-5.7088,-5.7088,-5.7088,-5.6366,-5.6448,-5.6468,-5.657,-5.6605,-5.6678,-5.671,-5.6754,-5.6793,-5.6883,-5.6938,-5.6965,-5.7011,-5.7081,-5.714,-5.7151,-5.7174,-5.7191,-5.72,-5.7111,-5.71,-5.7089,-5.707,-5.7196,-5.7196,-5.7289,-5.729,-5.729]},{"header":{"parameterUnit":"m.s-1","parameterCategory":1,"la1":30.2991,"la2":30.254,"lo1":-89.0895,"lo2":-89.0444,"dy":0.0017,"dx":0.0017,"nx":28,"ny":28,"refTime":"2023-10-24T21:00:00:Z","depth":0,"parameterNumber":3,"parameterNumberName":"V-component_of_WINDS"},"data":[0,0,0,0,0,0,0,0,0,0,0,0,0,0,0,0,0,0,0,0,0,0,0,0,0,0,0,0,0,0,0,0,0,0,0,0,0,0,0,0,0,0,0,0,0,0,0,0,0,0,0,0,0,0,0,0,0,0,3.0064,3.0065,0,3.0138,3.0139,3.0139,3.0201,3.0202,3.0203,3.0204,3.0273,3.0275,3.0276,0,0,0,0,0,0,0,0,0,0,0,0,0,2.9974,2.9975,3.0064,3.0065,3.0066,3.0138,3.0139,3.014,3.0201,3.0202,3.0203,3.0204,3.0273,3.0274,3.0276,0,0,0,0,0,0,0,0,0,0,0,0,0,3.0027,2.9976,3.0064,3.0106,3.011,3.0137,3.0139,3.014,3.0201,3.0202,3.0203,3.0204,3.0272,3.0274,3.0276,3.0266,0,0,3.0282,3.0282,0,0,0,0,0,0,0,0,3.0024,3.003,3.0099,3.0103,3.0108,3.0162,3.0133,3.0182,3.0201,3.0166,3.0204,3.0205,3.0235,3.024,3.0251,3.027,3.0273,3.0282,3.0283,3.0284,3.0284,0,0,0,0,0,0,0,3.002,3.0027,3.0093,3.0099,3.0105,3.012,3.0128,3.0142,3.0194,3.0169,3.0174,3.0182,3.0238,3.0249,3.0253,3.0274,3.0282,3.0283,3.0284,3.0285,3.0291,3.029,0,0,0,0,0,0,3.001,3.0024,3.0091,3.0095,3.0068,3.012,3.013,3.0143,3.0194,3.0203,3.0181,3.0185,3.0246,3.0251,3.0256,3.0251,3.0284,3.0285,3.0286,3.0292,3.0291,3.029,0,0,0,0,0,0,3.0008,3.0016,3.0088,3.0061,3.0071,3.0121,3.0135,3.0144,3.0156,3.0203,3.0212,3.0184,3.0247,3.0253,3.0265,3.0254,3.0286,3.0288,3.0293,3.0292,3.029,3.0237,0,0,0,0,0,0,3.0005,3.0015,3.0012,3.006,3.0072,3.0096,3.0134,3.0145,3.016,3.0165,3.0208,3.0216,3.0248,3.0261,3.0266,3.0257,3.0289,3.0294,3.0292,3.0291,3.024,3.0234,3.0229,0,0,0,0,0,3.0002,2.9992,3.0012,3.0019,3.007,3.0095,3.0102,3.0141,3.0158,3.0156,3.0187,3.0215,3.0254,3.0262,3.0268,3.0259,3.0295,3.0293,3.0291,3.0243,3.0236,3.0229,0,0,0,0,0,0,2.9938,2.9999,3.0021,3.0027,3.0056,3.0105,3.0103,3.0131,3.0154,3.0157,3.0203,3.0212,3.0219,3.024,3.0248,3.0254,3.0278,3.0277,3.024,3.0233,3.0228,3.0223,3.0291,0,0,0,0,0,2.9926,2.9942,2.9993,2.9994,3.0007,3.0053,3.0065,3.0093,3.0123,3.0135,3.0166,3.0194,3.0213,3.0224,3.0244,3.0244,3.0255,3.0241,3.0235,3.023,3.0229,3.0233,3.0228,3.0283,3.0283,3.0283,0,0,2.9898,2.9933,2.994,2.9982,3.0007,3.0023,3.0062,3.0076,3.0088,3.0137,3.015,3.0174,3.0208,3.0214,3.0218,3.0232,3.0216,3.0228,3.0223,3.0225,3.023,3.0225,3.022,3.0282,3.0282,3.0282,0,0,2.9857,2.9884,2.9889,2.9915,2.9954,2.9985,2.9986,3.0033,3.0051,3.0066,3.0104,3.0118,3.0149,3.0172,3.0188,3.0159,3.0186,3.0164,3.0135,3.0138,3.0134,3.013,3.0122,3.0118,3.0162,3.0162,3.0162,0,2.9817,2.9843,2.9887,2.9901,2.9918,2.9966,2.9971,2.9993,3.0036,3.0047,3.0062,3.0104,3.013,3.0143,3.0137,3.0147,3.015,3.0159,3.0131,3.0128,3.0125,3.0117,3.0114,3.0159,3.016,3.016,3.016,0,2.9794,2.9811,2.981,2.9854,2.9872,2.988,2.9925,2.9937,2.9964,2.9994,3.0009,3.0042,3.0071,3.0076,3.0101,3.0094,3.0101,3.0123,3.0149,3.0117,3.011,3.0107,3.0155,3.0156,3.0157,3.0158,0,0,2.9712,2.9783,2.9782,2.9804,2.9852,2.9866,2.9877,2.9908,2.9919,2.9946,2.9958,2.9984,3.0006,3.0024,3.0052,3.0055,3.0032,3.0077,3.0079,3.0069,3.0029,3.0013,3.0009,3.0051,3.005,3.005,3.0026,0,2.968,2.9706,2.9747,2.9759,2.9777,2.9824,2.9834,2.9864,2.9892,2.991,2.9941,2.996,2.9986,2.9998,3.0003,3.0034,3.0025,3.0036,3.0061,3.0062,3.0053,3.0005,2.9988,2.9964,3.0024,3.0024,3.0023,0,2.9645,2.9674,2.9688,2.9739,2.9748,2.9756,2.9789,2.9806,2.9842,2.9862,2.9884,2.9916,2.993,2.9954,2.9975,2.9981,2.9994,3.0011,3.0011,3.0016,3.0041,3.0009,2.9957,2.9954,3.0019,3.002,3.002,0,2.9587,2.9629,2.9644,2.9661,2.9719,2.9724,2.9748,2.9786,2.9802,2.983,2.9842,2.987,2.9885,2.9906,2.9945,2.9958,2.9962,2.9988,2.998,2.9979,2.9979,2.9978,2.9929,2.9985,2.9985,2.9985,2.9985,0,2.9547,2.9554,2.962,2.9629,2.9639,2.9686,2.9694,2.9722,2.9755,2.9771,2.9812,2.9825,2.9875,2.9893,2.9923,2.9937,2.9943,2.996,2.9968,2.9957,2.9955,2.9967,2.997,2.9984,2.9984,2.9984,2.9985,0,2.9483,2.9527,2.9547,2.9602,2.9616,2.9621,2.9667,2.9678,2.971,2.9728,2.9735,2.9784,2.9809,2.985,2.9885,2.9905,2.9914,2.9927,2.9903,2.9908,2.9897,2.9898,2.9854,2.9852,2.9908,2.9907,2.9906,0,2.9455,2.9463,2.952,2.9534,2.9558,2.958,2.9598,2.9645,2.9663,2.9706,2.9711,2.974,2.9765,2.9802,2.9839,2.9867,2.9882,2.9865,2.9886,2.9876,2.9884,2.9883,2.9885,2.986,2.9859,2.9858,2.9858,0,2.9402,2.9424,2.945,2.9485,2.9507,2.9535,2.9565,2.9574,2.9628,2.9646,2.9673,2.9693,2.9731,2.9759,2.9793,2.9816,2.9846,2.9851,2.9851,2.984,2.9826,2.9835,2.989,2.9851,2.9852,2.9853,2.9853,2.9853,2.9356,2.9366,2.9409,2.9437,2.9466,2.9495,2.9508,2.9543,2.9567,2.9604,2.963,2.9656,2.9693,2.9742,2.9764,2.9785,2.9798,2.9797,2.9797,2.9796,2.9793,2.9823,2.979,2.9791,2.9791,2.9791,2.9791,0,2.9307,2.9337,2.9363,2.9407,2.9429,2.9458,2.9494,2.951,2.9533,2.9567,2.9592,2.9624,2.9652,2.9693,2.9724,2.9732,2.9747,2.9739,2.9739,2.9745,2.9778,2.9776,2.9727,2.9727,2.9727,2.9727,2.9727,2.9727,2.9283,2.9303,2.9331,2.9365,2.9395,2.9423,2.9441,2.9468,2.9495,2.953,2.9555,2.9582,2.9619,2.9653,2.968,2.9692,2.9702,2.969,2.9705,2.9736,2.9742,2.9748,2.9746,2.9691,2.9691,2.967,2.967,2.967]}]]